This is the latest recevied weather packets stored in our database for station/object W7TJC. If no packets are shown the sender has not sent any weather packets the latest 10 day(s).
| Time | Temp. | Humidity | Pressure | Rain* | Wind** | Luminosity | Snow |
|---|---|---|---|---|---|---|---|
| 1778015550 | 15.56° C | 79% | 1017.5 hPa | 0 mm | - | 83 W/m² | - |
| 1778015246 | 15° C | 79% | 1017.6 hPa | 0 mm | - | 96 W/m² | - |
| 1778014943 | 15° C | 79% | 1017.7 hPa | 0 mm | - | 104 W/m² | - |
| 1778014640 | 15° C | 79% | 1017.8 hPa | 0 mm | - | 95 W/m² | - |
| 1778014339 | 15° C | 79% | 1017.7 hPa | 0 mm | - | 86 W/m² | - |
| 1778014034 | 15° C | 79% | 1017.7 hPa | 0 mm | - | 85 W/m² | - |
| 1778013733 | 15° C | 78% | 1017.8 hPa | 0 mm | - | 88 W/m² | - |
| 1778013430 | 15° C | 79% | 1017.9 hPa | 0 mm | - | 84 W/m² | - |
| 1778013126 | 15° C | 80% | 1017.8 hPa | 0 mm | - | 87 W/m² | - |
| 1778012822 | 15° C | 80% | 1017.7 hPa | 0 mm | - | 78 W/m² | - |
| 1778012518 | 14.44° C | 80% | 1017.8 hPa | 0 mm | - | 85 W/m² | - |
| 1778012215 | 14.44° C | 80% | 1018 hPa | 0 mm | - | 78 W/m² | - |
| 1778011913 | 14.44° C | 80% | 1017.9 hPa | 0 mm | - | 94 W/m² | - |
| 1778011611 | 14.44° C | 81% | 1017.8 hPa | 0 mm | - | 78 W/m² | - |
| 1778011307 | 14.44° C | 80% | 1017.6 hPa | 0 mm | - | 72 W/m² | - |
| 1778011003 | 14.44° C | 81% | 1017.8 hPa | 0 mm | - | 70 W/m² | - |
| 1778010701 | 14.44° C | 81% | 1017.6 hPa | 0 mm | - | 65 W/m² | - |
| 1778010398 | 14.44° C | 81% | 1017.6 hPa | 0 mm | - | 70 W/m² | - |
| 1778010094 | 13.89° C | 81% | 1017.9 hPa | 0 mm | - | 65 W/m² | - |
| 1778009791 | 13.89° C | 81% | 1017.8 hPa | 0 mm | - | 56 W/m² | - |
| 1778009488 | 13.89° C | 81% | 1017.9 hPa | 0 mm | - | 55 W/m² | - |
| 1778009186 | 13.89° C | 81% | 1017.7 hPa | 0 mm | - | 60 W/m² | - |
| 1778008883 | 13.89° C | 81% | 1017.8 hPa | 0 mm | - | 66 W/m² | - |
| 1778008582 | 13.89° C | 81% | 1017.7 hPa | 0 mm | - | 66 W/m² | - |
| 1778008279 | 14.44° C | 81% | 1017.5 hPa | 0 mm | - | 61 W/m² | - |
* Rain latest hour (hover to see other rain measurements)
** Current wind speed in m/s (hover to see current wind gust speed)